TimeEDT,TemperatureF,Dew PointF,Humidity,Sea Level PressureIn,VisibilityMPH,Wind Direction,Wind SpeedMPH,Gust SpeedMPH,PrecipitationIn,Events,Conditions,WindDirDegrees,DateUTC
12:51 AM,34.0,30.9,89,29.84,8.0,West,9.2,16.1,0.00,Snow,Light Snow,280,2012-11-01 04:51:00
1:51 AM,33.1,30.9,92,29.83,6.0,WNW,8.1,-,0.00,Snow,Light Snow,300,2012-11-01 05:51:00
2:51 AM,33.1,30.9,92,29.83,3.0,West,6.9,-,0.00,Snow,Light Snow,280,2012-11-01 06:51:00
3:51 AM,33.1,30.9,92,29.83,4.0,West,6.9,-,0.01,Snow,Light Snow,280,2012-11-01 07:51:00
4:51 AM,33.1,30.9,92,29.82,4.0,West,8.1,-,0.00,Snow,Light Snow,260,2012-11-01 08:51:00
5:40 AM,33.8,30.2,87,29.76,3.0,West,9.2,-,0.00,Snow,Light Snow,260,2012-11-01 09:40:00
5:51 AM,33.1,30.9,92,29.82,2.5,West,6.9,-,0.00,Snow,Light Snow,260,2012-11-01 09:51:00
6:34 AM,33.8,30.2,87,29.77,3.0,West,6.9,-,0.00,Snow,Light Snow,280,2012-11-01 10:34:00
6:46 AM,33.8,30.2,87,29.77,2.5,West,6.9,-,0.00,Snow,Light Snow,260,2012-11-01 10:46:00
6:51 AM,33.1,30.9,92,29.84,3.0,West,8.1,-,0.00,,Overcast,280,2012-11-01 10:51:00
7:26 AM,33.8,30.2,87,29.77,3.0,West,8.1,-,0.00,Snow,Light Snow,270,2012-11-01 11:26:00
7:39 AM,33.8,30.2,87,29.78,2.5,West,8.1,-,0.00,Snow,Light Snow,270,2012-11-01 11:39:00
7:51 AM,33.1,30.9,92,29.86,2.5,West,6.9,-,0.00,Snow,Light Snow,270,2012-11-01 11:51:00
8:21 AM,33.8,30.2,87,29.79,2.5,West,8.1,-,0.00,Snow,Light Snow,270,2012-11-01 12:21:00
8:38 AM,33.8,30.2,87,29.80,1.5,West,6.9,-,0.00,Snow,Light Snow,270,2012-11-01 12:38:00
8:51 AM,33.1,30.9,92,29.88,1.5,West,8.1,-,0.00,Snow,Light Snow,270,2012-11-01 12:51:00
9:08 AM,33.8,30.2,87,29.81,2.0,West,5.8,-,0.01,Snow,Light Snow,270,2012-11-01 13:08:00
9:21 AM,33.8,32.0,93,29.81,1.5,West,6.9,-,0.01,Snow,Light Snow,270,2012-11-01 13:21:00
9:42 AM,33.8,32.0,93,29.81,2.0,West,4.6,-,0.01,Snow,Light Snow,280,2012-11-01 13:42:00
9:51 AM,33.1,32.0,96,29.88,3.0,West,3.5,-,0.01,Snow,Light Snow,270,2012-11-01 13:51:00
10:44 AM,33.8,32.0,93,29.82,4.0,WNW,6.9,-,0.00,Snow,Light Snow,290,2012-11-01 14:44:00
10:51 AM,34.0,32.0,92,29.88,4.0,West,9.2,-,0.00,,Overcast,280,2012-11-01 14:51:00
11:51 AM,35.1,32.0,89,29.88,5.0,WNW,10.4,-,0.00,,Overcast,300,2012-11-01 15:51:00
12:51 PM,35.1,33.1,92,29.88,6.0,West,8.1,-,0.00,Rain,Light Rain,280,2012-11-01 16:51:00
1:51 PM,36.0,33.1,89,29.86,8.0,West,9.2,-,0.00,,Overcast,260,2012-11-01 17:51:00
2:06 PM,35.6,33.8,93,29.79,9.0,WSW,8.1,-,N/A,,Overcast,250,2012-11-01 18:06:00
2:51 PM,37.0,32.0,82,29.85,10.0,West,10.4,-,N/A,,Overcast,270,2012-11-01 18:51:00
3:04 PM,37.4,32.0,81,29.78,10.0,West,9.2,-,N/A,,Overcast,270,2012-11-01 19:04:00
3:51 PM,39.0,33.1,79,29.84,10.0,West,11.5,-,N/A,,Overcast,260,2012-11-01 19:51:00
4:51 PM,39.9,30.9,70,29.84,10.0,West,13.8,-,N/A,,Mostly Cloudy,280,2012-11-01 20:51:00
5:02 PM,39.2,30.2,70,29.79,10.0,West,11.5,-,N/A,,Scattered Clouds,270,2012-11-01 21:02:00
5:51 PM,41.0,30.9,67,29.84,10.0,West,5.8,-,N/A,,Clear,280,2012-11-01 21:51:00
6:51 PM,39.0,30.0,70,29.86,10.0,West,6.9,-,N/A,,Clear,270,2012-11-01 22:51:00
7:51 PM,37.9,30.0,73,29.88,10.0,Calm,Calm,-,N/A,,Overcast,0,2012-11-01 23:51:00
8:51 PM,39.0,27.0,62,29.88,10.0,WSW,3.5,-,N/A,,Overcast,240,2012-11-02 00:51:00
9:51 PM,37.9,27.0,65,29.90,10.0,West,6.9,-,N/A,,Overcast,270,2012-11-02 01:51:00
10:51 PM,39.0,23.0,53,29.91,10.0,WNW,4.6,-,N/A,,Mostly Cloudy,300,2012-11-02 02:51:00
11:51 PM,37.9,21.0,51,29.90,10.0,WNW,3.5,-,N/A,,Overcast,290,2012-11-02 03:51:00